NWS Melbourne » East Central Florida Hourly Weather Roundup

ASUS42 KMLB 211411
RWRMLB
HOURLY WEATHER ROUNDUP AROUND FLORIDA
NATIONAL WEATHER SERVICE OFFICE MELBOURNE FL
1000 AM EDT TUE APR 21 2015
  
CITY           SKY/WX    TMP DP  RH WIND       PRES   REMARKS
MELBOURNE      CLOUDY    74  70  87 SW6       29.98R                  
FORT PIERCE    CLOUDY    76  72  87 W3        29.99R                  
ORLANDO INTL   CLOUDY    75  69  81 SW5       29.99R                  
DAYTONA BEACH  CLOUDY    73  68  84 W7        29.98R                  
VERO BEACH     CLOUDY    76  71  85 W5        29.99R                  
$$
...ELSEWHERE ACROSS CENTRAL FLORIDA...
  
CITY           SKY/WX    TMP DP  RH WIND       PRES   REMARKS
PATRICK AFB    CLOUDY    75  70  85 W9        29.98R                  
KSC            CLOUDY    75  68  79 W7        29.97R                  
CAPE CANAVERAL CLOUDY    75  70  86 W7        29.98R                  
TITUSVILLE     MOSUNNY   73  73 100 W6        29.99R                  
ORLANDO EXEC   CLOUDY    75  68  78 SW6       29.99R                  
LEESBURG       CLOUDY    73  68  84 SW5       29.99S                  
THE VILLAGES     N/A     73  73 100 CALM      29.90R                  
SANFORD        CLOUDY    73  67  81 W5        29.98R                  
DELAND           N/A    N/A N/A N/A W6        29.99R                  
NEW SMYRNA BCH PTSUNNY   75  68  78 W6        30.00R                  
ORMOND BEACH   SUNNY     72  66  83 W5        29.98R                  
WINTER HAVEN   CLOUDY    75  70  84 CALM      30.00R                  
KISSIMMEE      MOSUNNY   75  72  88 VRB3      29.99R                  
OKEECHOBEE     CLOUDY   N/A N/A N/A W5        30.00R                  
TAMPA          CLOUDY    76  70  82 CALM      29.99R                  
$$
...NORTHERN FLORIDA...
  
CITY           SKY/WX    TMP DP  RH WIND       PRES   REMARKS
PALM COAST     SUNNY     72  66  83 W7        29.98R                  
ST AUGUSTINE   PTSUNNY   72  66  83 NW7       29.98S                  
OCALA          MOSUNNY   72  66  83 NW5       29.99R                  
GAINESVILLE    PTSUNNY   71  64  78 N3        29.98S                  
JACKSONVILLE   PTSUNNY   71  63  75 N10       29.97R                  
TALLAHASSEE    MOSUNNY   68  52  56 N8        30.02R                  
$$
...ALONG THE SOUTHEAST COAST TO THE KEYS...
  
CITY           SKY/WX    TMP DP  RH WIND       PRES   REMARKS
STUART         CLOUDY    73  72  94 CALM      29.99R FOG              
WEST PALM BCH  CLOUDY    75  71  87 SW5       30.00S                  
MIAMI          CLOUDY    76  70  82 W8        30.00R                  
KEY WEST       SUNNY     83  77  82 S8        30.00R                  
$$
...MARINE REPORTS...
  
STATION/POSITION TIME  TEMP    WIND        PRES    WAVE   SWELL
                       AIR SEA DIR/SP/G            HT/PER HT/PER/DIR
                 (UTC) (F)     (DEG/KT/KT) (MB)    (FT/S) (FT/S/D)
ST AUGUSTINE FP  1400   70 63  320/  6/  8 1015.5S
20NM E CAPE CANA 1320   76 78  260/ 10/ 10 1014.8
120 E NEW SMYRNA 1350   78 78  300/ 14/ 17 1014.1R   3/14   2/ 40/14
TRIDENT PIER     1348   75 78  230/  7/  9 1015.7R
SEBASTIAN INLET  1400   74     240/  5     1016.0
4NM E PORT CANAV 1339      77                N/A     1/13
6NM NE FPR INLET 1351      76                N/A     1/14   2/ 60/14
SETTLEMENT PT GB 1400   79     280/ 12/ 13 1015.9R
$$
 


USA.gov is the U.S. government's official web portal to all federal, state and local government web resources and services.